Flag for U.S.A. Weather past 2 weeks in Sunrise, Florida, U.S.A.

78 °F

Scattered clouds.

Feels Like: 80 °F
Forecast: 72 / 79 °F
Wind: 20 mph from Northeast

Location: Fort Lauderdale Executive Airport

Current Time: Nov 26, 2015 at 9:20:53 AM

Latest Report: Nov 26, 2015 at 8:53 AM

Visibility: 10 mi

Pressure: 30.28 "Hg

Humidity: 56%

Dew point: 61 °F

Location of SunriseLocation

Historic Weather in Sunrise — Graph


Sunrise temperature yesterday

Maximum temperature yesterday: 81 °F (at 11:53 AM)
Minimum temperature yesterday: 73 °F (at 1:53 AM)
Average temperature yesterday: 76 °F

Past Weeks' High & Low Weather Summary

High89 °F (Nov 11, 2:53 PM)100% (Nov 11, 10:53 PM)30.26 "Hg (Nov 11, 10:53 PM)
Low62 °F (Nov 23, 6:53 AM)42% (Nov 24, 11:53 AM)29.78 "Hg (Nov 22, 2:53 PM)
Average77 °F77%30.04 "Hg
* Reported Nov 11 7:53 AM — Nov 26 7:53 AM, Sunrise, Weather by CustomWeather, © 2015

Note: Actual official high and low records may vary slightly from our data, if they occured in-between our weather recording intervals... More about our weather records


Sunrise weather history for previous 24 hours

Time TempWeatherWind HumidityBarometerVisibility
7:53 AM
Thu, Nov 26
76 °FPassing clouds.24 mph62%30.26 "Hg10 mi
6:53 AM75 °FPartly sunny.16 mph66%30.24 "Hg10 mi
5:53 AM75 °FPassing clouds.22 mph62%30.22 "Hg10 mi
4:53 AM75 °FPassing clouds.13 mph66%30.21 "Hg10 mi
3:53 AM75 °FPassing clouds.17 mph62%30.21 "Hg10 mi
2:53 AM75 °FPartly cloudy.20 mph64%30.21 "Hg10 mi
1:53 AM75 °FPassing clouds.18 mph64%30.22 "Hg10 mi
12:53 AM76 °FPartly cloudy.22 mph60%30.24 "Hg10 mi
11:53 PM
Wed, Nov 25
76 °FPartly cloudy.22 mph62%30.24 "Hg10 mi
10:53 PM76 °FOvercast.18 mph62%30.24 "Hg10 mi
9:53 PM76 °FPartly cloudy.25 mph62%30.24 "Hg10 mi
8:53 PM76 °FPartly cloudy.26 mph62%30.23 "Hg10 mi
7:53 PM73 °FLight rain. Mostly cloudy.18 mph74%30.22 "Hg10 mi
6:53 PM75 °FPassing clouds.15 mph66%30.21 "Hg10 mi
5:53 PM75 °FPassing clouds.15 mph64%30.20 "Hg10 mi
4:53 PM76 °FScattered clouds.15 mph62%30.19 "Hg10 mi
3:53 PM77 °FPassing clouds.22 mph58%30.18 "Hg10 mi
2:53 PM77 °FMostly cloudy.21 mph60%30.18 "Hg10 mi
1:53 PM78 °FBroken clouds.21 mph52%30.18 "Hg10 mi
12:53 PM78 °FScattered clouds.22 mph54%30.20 "Hg10 mi
11:53 AM81 °FScattered clouds.18 mph49%30.22 "Hg10 mi
10:53 AM78 °FBroken clouds.23 mph54%30.24 "Hg10 mi
9:53 AM78 °FMore clouds than sun.20 mph56%30.23 "Hg10 mi
Weather by CustomWeather, © 2015

See weather overviewHow to use our weather pages